星链-5757 (STARLINK-5757 )

导读

STARLINK-5757是美国SpaceX星链互联网卫星星座的一员,于北京时间2023年2月12日发射入轨,属于星链低轨卫星组网的组成部分。这类卫星通过大规模低轨星座部署,为全球提供高速互联网覆盖,该卫星加入星座后进一步扩充了星链的服务能力,也延续了美国低轨巨型星座的组网节奏。

基本信息
目录编号:
55580
目录名称:
STARLINK-5757
国际标识:
2023-020M
轨道中心:
EARTH
卫星名称:
星链-5757
卫星全名:
星链-5757 (STARLINK-5757 )
卫星状态:
在轨 (已飞行1219 天)
发射日期:
2023-02-12 UTC
国别 :
美国 (US)
星等 :
--
轨道信息
数据来源 国际轨道数据
星历时间: 2026-06-15T00:32:21+0800
8小时前
查看轨道信息
半长轴: 6861.201km
偏心率: 0.0001238
轨道倾角: 43.001°
近地点辐角 257.201°
升交点赤经 151.745°
平近点角 102.870°
近地点: 482.214km
远地点: 483.914km
周期: 94.267分钟
每日圈数: 15.275753
详细信息
固有亮度:
5
最大亮度:
2.5
卫星平台:
Starlink v1.5
覆盖范围:
全球
运营商:
太空探索技术公司
运营商所在国:
美国
制造商(研发单位):
太空探索技术公司
制造商所在国:
美国
使用方式:
暂无
卫星简介
星链(Starlink)计划是由太空探索技术公司(SpaceX)提出的一个巨型低轨卫星互联网星座项目,计划在2019年至2024年间在太空搭建由约1.2万颗卫星组成的“星链”网络,其中1584颗将部署在地球上空550千米处的近地轨道,并从2020年开始工作。该卫星仍在工作。
2D轨道图
3D轨道图
轨道高度分析图
轨道倾角分析图
轨道综合分析图
查看轨道综合分析图